(151120) = 2001 WT52

Discovered at Socorro on 2001-11-19 by LINEAR.

Orbit

Orbit type: Main Belt

Note: WebGL enabled browser required.

epoch2022-01-21.0
epoch JD2459600.5
perihelion date2020-03-02.48774
perihelion JD2458910.98774
argument of perihelion (°)146.93654
ascending node (°)237.34614
inclination (°)4.88507
eccentricity0.0627681
perihelion distance (AU)2.6056277
Tisserand w.r.t. Jupiter3.3
ΔV w.r.t. Earth (km/sec)10.2
semimajor axis (AU)2.7801312
mean anomaly (°)146.60470
mean daily motion (°/day)0.21262090
aphelion distance (AU)2.955
period (years)4.64
P-vector [x]0.90985908
P-vector [y]0.35980498
P-vector [z]0.20663212
Q-vector [x]-0.40867576
Q-vector [y]0.86319158
Q-vector [z]0.29645307
absolute magnitude16.11
phase slope0.15
uncertainty0
referenceMPO 694341
observations used507
oppositions15
arc length (days)7496
first opposition used2001
last opposition used2022
residual rms (arc-secs)0.76
perturbers coarse indicatorM-v
perturbers precise indicator003Ek
first observation date used2001-10-19.0
last observation date used2022-04-28.0
computer namePan
JD of orbit computation2456966.783153
perihelion JD uncertainty (days)1.5641E-04
argument of perihelion uncertainty (°)6.3219E-05
ascending node uncertainty (°)5.3986E-05
inclination uncertainty (°)4.3812E-06
eccentricity uncertainty 4.5441E-08
perihelion distance uncertainty (AU)1.3312E-07
Minimum Orbit Intersection Distances (in AU)
for orbit epoch: 2458200.5, reference: MPO407163
Mercury2.26669
Venus1.88917
Earth1.61334
Mars1.13772
Jupiter2.35479
Saturn6.34532
Uranus15.2721
Neptune27.2246

Observations

520 total observations over interval: 2001 10 19.44940 – 2022 04 28.321178
These data are available for download (format description).

Date (UT) J2000 RA J2000 Dec Magn Location Ref
2001 10 19.44940 02 56 22.87 +19 20 03.0 20.1   644 – Palomar Mountain/NEAT MPS 54661
2001 10 19.47351 02 56 21.76 +19 19 56.4 19.5   644 – Palomar Mountain/NEAT MPS 54661
2001 10 19.49619 02 56 20.73 +19 19 49.4 20.0   644 – Palomar Mountain/NEAT MPS 54661
2001 10 26.40611 02 50 56.50 +18 45 26.6 19.4   644 – Palomar Mountain/NEAT MPS 57244
2001 10 26.43169 02 50 55.18 +18 45 18.3 19.4   644 – Palomar Mountain/NEAT MPS 57244
2001 10 26.45302 02 50 54.12 +18 45 11.7 20.4   644 – Palomar Mountain/NEAT MPS 57244
2001 11 09.29138 02 39 01.53 +17 25 17.7 19.1   704 – Lincoln Laboratory ETS, New Mexico MPS 54661
2001 11 09.30593 02 39 00.73 +17 25 12.5 20.0   704 – Lincoln Laboratory ETS, New Mexico MPS 54661
2001 11 09.32039 02 38 59.91 +17 25 08.4 19.5   704 – Lincoln Laboratory ETS, New Mexico MPS 54661
2001 11 09.33486 02 38 59.16 +17 25 01.7 19.6   704 – Lincoln Laboratory ETS, New Mexico MPS 54661
2001 11 09.34935 02 38 58.40 +17 24 56.3 19.4   704 – Lincoln Laboratory ETS, New Mexico MPS 54661
2001 11 19.21631 02 30 58.78 +16 26 00.7 19.3   704 – Lincoln Laboratory ETS, New Mexico MPS 49651
2001 11 19.23122 02 30 58.06 +16 25 55.7 19.9   704 – Lincoln Laboratory ETS, New Mexico MPS 49651
2001 11 19.27551 02 30 55.93 +16 25 40.2 19.9   704 – Lincoln Laboratory ETS, New Mexico MPS 49651
2001 11 21.15927 02 29 33.63 +16 14 51.8 19.3   704 – Lincoln Laboratory ETS, New Mexico MPS 49651
2001 11 21.17388 02 29 32.96 +16 14 47.1 19.6   704 – Lincoln Laboratory ETS, New Mexico MPS 49651
2001 11 21.18851 02 29 32.32 +16 14 42.5 20.0   704 – Lincoln Laboratory ETS, New Mexico MPS 49651
2001 11 21.20314 02 29 31.66 +16 14 37.5 19.8   704 – Lincoln Laboratory ETS, New Mexico MPS 49651
2001 11 21.21791 02 29 31.01 +16 14 32.4 19.5   704 – Lincoln Laboratory ETS, New Mexico MPS 49651
2004 04 21.36525 15 39 11.46 -20 38 39.8 20.7 V 691 – Steward Observatory, Kitt Peak-Spacewatch MPS 135320
2004 04 21.39252 15 39 10.35 -20 38 34.4 20.7 V 691 – Steward Observatory, Kitt Peak-Spacewatch MPS 135320
2004 04 21.41981 15 39 09.24 -20 38 28.7 20.9 V 691 – Steward Observatory, Kitt Peak-Spacewatch MPS 135320
2004 05 12.66638 15 22 20.10 -19 10 00.7 18.1 R E12 – Siding Spring Survey MPS 135320
2004 05 12.67784 15 22 19.79 -19 09 58.2 17.7 R E12 – Siding Spring Survey MPS 135320
2004 05 12.68925 15 22 18.91 -19 09 54.8 18.9 R E12 – Siding Spring Survey MPS 135320
2004 05 12.70064 15 22 18.33 -19 09 52.4 18.8 R E12 – Siding Spring Survey MPS 135320
2004 06 13.17106 14 59 25.39 -16 51 22.2 21.2 V 691 – Steward Observatory, Kitt Peak-Spacewatch MPS 135321
2004 06 13.19828 14 59 24.56 -16 51 16.8 21.1 V 691 – Steward Observatory, Kitt Peak-Spacewatch MPS 135321
2004 06 13.22580 14 59 23.76 -16 51 11.3 20.7 V 691 – Steward Observatory, Kitt Peak-Spacewatch MPS 135321
2005 07 30.33583 22 15 35.73 -02 46 25.2 19.8   644 – Palomar Mountain/NEAT MPS 138861
2005 07 30.35914 22 15 34.86 -02 46 27.4 19.8   644 – Palomar Mountain/NEAT MPS 138861
2005 07 30.37956 22 15 34.13 -02 46 29.5 19.8   644 – Palomar Mountain/NEAT MPS 138861
2005 08 06.43322 22 10 59.92 -03 01 50.3 19.5   644 – Palomar Mountain/NEAT MPS 139621
2005 08 06.44450 22 10 59.40 -03 01 52.1 19.4   644 – Palomar Mountain/NEAT MPS 139621
2005 08 06.45627 22 10 58.88 -03 01 53.9 19.6   644 – Palomar Mountain/NEAT MPS 139621
2005 08 24.36535 21 57 00.36 -04 09 49.2 19.1   644 – Palomar Mountain/NEAT MPS 139621
2005 08 24.38691 21 56 59.28 -04 09 55.2 19.4   644 – Palomar Mountain/NEAT MPS 139621
2005 08 24.41592 21 56 57.80 -04 10 03.4 19.3   644 – Palomar Mountain/NEAT MPS 139621
2005 11 01.09164 21 42 37.29 -07 49 23.0 20.4 V G96 – Mt. Lemmon Survey MPS 149357
2005 11 01.09765 21 42 37.51 -07 49 23.4 21.0 V G96 – Mt. Lemmon Survey MPS 149357
2005 11 01.10366 21 42 37.69 -07 49 22.4 21.0 V G96 – Mt. Lemmon Survey MPS 149357
2005 11 01.10970 21 42 37.90 -07 49 22.5 21.1 V G96 – Mt. Lemmon Survey MPS 149357
2006 11 21.40639 05 58 24.02 +20 47 44.9 20.1 V 691 – Steward Observatory, Kitt Peak-Spacewatch MPS 188448
2006 11 21.42378 05 58 23.36 +20 47 42.7 20.2 V 691 – Steward Observatory, Kitt Peak-Spacewatch MPS 188448
2006 11 21.44117 05 58 22.65 +20 47 40.3 20.1 V 691 – Steward Observatory, Kitt Peak-Spacewatch MPS 188448
2007 01 09.31182 05 16 18.91 +19 08 20.0 19.6 V G96 – Mt. Lemmon Survey MPS 195450
2007 01 09.31733 05 16 18.69 +19 08 19.7 19.7 V G96 – Mt. Lemmon Survey MPS 195450
2007 01 09.32304 05 16 18.48 +19 08 19.0 20.0 V G96 – Mt. Lemmon Survey MPS 195450
2007 01 09.32869 05 16 18.22 +19 08 18.8 20.1 V G96 – Mt. Lemmon Survey MPS 195450
2007 02 17.22054 05 11 49.99 +19 02 07.2 20.8 V G96 – Mt. Lemmon Survey MPS 200292
2007 02 17.22598 05 11 50.10 +19 02 06.9 20.9 V G96 – Mt. Lemmon Survey MPS 200292
2007 02 17.23142 05 11 50.28 +19 02 07.7 21.9 V G96 – Mt. Lemmon Survey MPS 200292
2007 02 17.23687 05 11 50.35 +19 02 07.4 20.6 V G96 – Mt. Lemmon Survey MPS 200292
2008 01 20.45868 12 12 47.05 -07 29 40.7 21.4 V G96 – Mt. Lemmon Survey MPS 235249
2008 01 20.46429 12 12 47.16 -07 29 41.8 21.9 V G96 – Mt. Lemmon Survey MPS 235249
2008 01 20.46995 12 12 47.16 -07 29 42.5 20.9 V G96 – Mt. Lemmon Survey MPS 235249
2008 01 20.47559 12 12 47.30 -07 29 43.8 21.9 V G96 – Mt. Lemmon Survey MPS 235249
2008 03 01.28487 12 00 59.75 -07 00 34.8 20.0 V 691 – Steward Observatory, Kitt Peak-Spacewatch MPS 241872
2008 03 01.30250 12 00 59.00 -07 00 30.5 20.2 V 691 – Steward Observatory, Kitt Peak-Spacewatch MPS 241872
2008 03 01.32013 12 00 58.24 -07 00 26.5 20.5 V 691 – Steward Observatory, Kitt Peak-Spacewatch MPS 241872
2008 03 10.34198 11 54 19.27 -06 18 08.8 20.4   704 – Lincoln Laboratory ETS, New Mexico MPS 243410
2008 03 10.35328 11 54 18.63 -06 18 06.5 20.1   704 – Lincoln Laboratory ETS, New Mexico MPS 243410
2008 03 10.36461 11 54 18.10 -06 18 03.2 20.2   704 – Lincoln Laboratory ETS, New Mexico MPS 243410
2008 03 10.37585 11 54 17.65 -06 17 58.4 20.3   704 – Lincoln Laboratory ETS, New Mexico MPS 243410
2008 03 11.35926 11 53 31.52 -06 12 47.9 20.0 V G96 – Mt. Lemmon Survey MPS 243410
2008 03 11.36873 11 53 31.09 -06 12 45.1 20.0 V G96 – Mt. Lemmon Survey MPS 243410
2008 03 11.37822 11 53 30.62 -06 12 42.0 20.2 V G96 – Mt. Lemmon Survey MPS 243410
2008 03 11.38770 11 53 30.19 -06 12 39.2 20.0 V G96 – Mt. Lemmon Survey MPS 243410
2008 03 12.30590 11 52 46.99 -06 07 40.3 20.9 V 703 – Catalina Sky Survey MPS 243942
2008 03 12.31128 11 52 46.74 -06 07 38.6 20.5 V 703 – Catalina Sky Survey MPS 243942
2008 03 12.31667 11 52 46.48 -06 07 37.8 19.9 V 703 – Catalina Sky Survey MPS 243942
2008 03 12.32205 11 52 46.16 -06 07 35.4 20.4 V 703 – Catalina Sky Survey MPS 243942
2008 04 04.23942 11 35 15.07 -03 49 35.4 21.4 V 703 – Catalina Sky Survey MPS 246606
2008 04 04.24432 11 35 14.85 -03 49 32.4 20.1 V 703 – Catalina Sky Survey MPS 246606
2008 04 04.24919 11 35 14.71 -03 49 31.5 20.6 V 703 – Catalina Sky Survey MPS 246606
2008 05 11.16339 11 23 38.29 -01 11 18.0 20.8 V G96 – Mt. Lemmon Survey MPS 250238
2008 05 11.17319 11 23 38.29 -01 11 17.1 20.9 V G96 – Mt. Lemmon Survey MPS 250238
2008 05 11.18297 11 23 38.32 -01 11 16.2 21.1 V G96 – Mt. Lemmon Survey MPS 250238
2008 05 11.19257 11 23 38.40 -01 11 14.8 20.6 V G96 – Mt. Lemmon Survey MPS 250238
2010 09 06.22978 00 58 05.80 +12 32 22.3   691 – Steward Observatory, Kitt Peak-Spacewatch MPS 347734
2010 09 06.24747 00 58 05.32 +12 32 19.9   691 – Steward Observatory, Kitt Peak-Spacewatch MPS 347734
2010 09 06.26514 00 58 04.83 +12 32 17.0   691 – Steward Observatory, Kitt Peak-Spacewatch MPS 347734
2010 09 10.24306 00 56 09.38 +12 21 25.4 19.7 V 691 – Steward Observatory, Kitt Peak-Spacewatch MPS 347734
2010 09 10.26076 00 56 08.86 +12 21 21.0 19.9 V 691 – Steward Observatory, Kitt Peak-Spacewatch MPS 347734
2010 09 10.27848 00 56 08.27 +12 21 17.8 20.0 V 691 – Steward Observatory, Kitt Peak-Spacewatch MPS 347734
2010 09 14.23953 00 53 54.12 +12 07 33.5 19.8 V 691 – Steward Observatory, Kitt Peak-Spacewatch MPS 349153
2010 09 14.25722 00 53 53.45 +12 07 29.2 20.1 V 691 – Steward Observatory, Kitt Peak-Spacewatch MPS 349153
2010 09 14.27839 00 53 52.65 +12 07 24.5 19.8 V 691 – Steward Observatory, Kitt Peak-Spacewatch MPS 349153
